CAPE
0 0 0 0 0 0 0 0 0 0 0 0 0 0 0 0 0 0 0 0 0 0 0 0 0 0 0 0 0 0 0 0 0 0 0 0 0 0 0 0 0 0 0 0 0
0 0 0 0 0 0 0 0 0 0 0 0 0 0 0 0 0 0 0 0 0 0 0 0 0 0 0 0 0 0 0 0 0 0 0 0 0 0 0 0 0 0 0 0 0
0 0 0 0 0 0 0 0 0 0 0 0 0 0 0 0 0 0 0 0 0 0 0 0 0 0 0 0 0 0 0 0 0 0 0 0 0 0 0 0 0 0 0 0 0
0 0 0 0 0 0 0 0 0 0 0 0 0 0 0 0 0 0 0 0 0 0 0 0 0 0 0 0 0 0 0 0 0 0 0 0 0 0 0 0 0 0 0 0 0
0 0 0 0 0 0 0 0 0 0 0 0 0 0 0 0 0 0 0 0 0 0 0 0 0 0 0 0 0 0 0 0 0 0 0 0 0 0 0 0 0 0 0 0 0
1 0 0 0 0 0 0 0 0 0 0 0 0 0 0 0 0 0 0 0 0 0 0 0 0 0 0 0 0 0 0 0 0 0 0 0 0 0 0 0 0 0 0 0 0
0 0 0 0 0 0 0 0 0 0 0 0 0 0 0 0 0 0 0 0 0 0 0 0 0 0 0 0 0 0 0 0 0 0 0 0 0 0 0 0 0 0 0 0 0
0 0 0 0 0 0 0 0 0 0 0 0 0 0 0 0 0 0 0 0 0 0 0 0 0 0 0 0 0 0 0 0 0 0 0 0 0 0 0 0 0 0 0 0 0
0 0 0 0 0 0 0 0 0 0 0 0 0 0 0 0 0 0 0 0 0 0 0 0 0 0 0 0 0 0 0 0 0 0 0 0 0 0 0 0 0 0 0 0 0
0 0 0 0 0 0 0 0 0 0 0 0 0 0 0 0 0 0 0 0 0 0 0 0 0 0 0 0 0 0 0 0 0 0 0 0 0 0 0 0 0 0 0 0 0
6 0 0 0 0 0 0 0 0 0 0 0 0 0 0 0 0 0 0 0 0 0 0 0 0 0 0 0 0 0 0 0 0 0 0 0 0 0 0 0 0 0 0 0 0
4 8 0 0 0 0 0 0 0 0 0 0 0 0 0 0 0 0 0 0 0 0 0 0 0 0 0 0 0 0 0 0 0 0 0 0 0 0 0 0 0 0 0 0 0
0 10 0 0 0 2 0 0 0 0 0 0 0 0 0 0 0 0 0 0 0 0 0 0 0 0 0 0 0 0 0 0 0 0 0 0 0 0 0 0 0 0 0 0 0
0 0 1 1 1 0 0 0 0 0 0 0 0 0 0 0 0 0 0 0 0 0 0 0 0 0 0 0 0 0 0 0 0 0 0 0 0 0 0 0 0 0 0 0 0
0 0 0 0 0 1 0 0 0 0 0 0 0 0 0 0 0 0 0 0 0 0 0 0 0 0 0 0 0 0 0 0 0 0 0 0 0 0 0 0 0 0 0 0 0
0 0 0 2 2 0 0 0 0 0 0 0 0 0 0 0 0 0 0 0 0 0 0 0 0 0 0 0 0 0 0 0 0 0 0 0 0 0 0 0 0 0 0 0 0
0 0 2 31 12 3 0 0 1 0 0 0 0 0 0 0 0 0 0 0 0 0 0 0 0 0 0 0 0 0 0 0 0 0 0 0 0 0 0 0 0 0 0 0 0
0 0 0 0 24 34 0 0 2 0 0 0 0 0 0 0 0 0 0 0 0 0 0 0 0 0 0 0 0 0 0 0 0 0 0 0 0 0 0 0 0 0 0 0 0
0 0 0 0 2 25 19 32 0 0 0 0 0 0 0 0 0 0 0 0 0 0 0 0 0 0 0 0 0 0 0 0 0 0 0 0 0 0 0 0 0 0 0 0 0
2 0 0 0 0 86 76 16 2 0 0 0 0 0 0 0 0 0 0 0 0 0 0 0 0 0 0 0 0 0 0 0 0 0 0 0 0 0 0 0 0 0 0 0 0
34 2 0 0 30 32 32 5 1 0 0 2 0 0 0 0 0 0 0 0 0 0 0 0 0 0 0 0 0 0 0 0 0 0 0 0 0 0 0 0 0 0 0 0 0
36 3 0 38 5 8 8 0 0 0 4 3 0 9 0 0 0 0 0 0 0 0 0 0 0 0 0 0 0 0 0 0 0 0 0 0 0 0 0 0 0 0 0 0 0
14 15 18 29 16 3 0 0 18 12 2 0 2 6 0 5 5 0 0 0 0 0 0 0 0 0 0 0 0 0 0 0 0 0 0 0 0 0 0 0 0 0 0 0 0
3 0 0 1 0 2 0 0 0 34 39 6 0 4 7 4 0 0 0 0 0 0 0 0 0 0 0 0 0 0 0 0 0 0 0 0 0 0 0 0 0 0 0 0 0
8 2 6 7 0 0 2 4 0 0 23 22 2 4 3 18 19 2 0 0 0 0 0 0 0 0 0 0 0 0 0 0 0 0 0 0 0 0 0 0 0 0 0 0 0
0 0 2 1 6 9 0 0 0 2 10 3 2 0 0 0 2 5 0 1 3 0 0 0 0 0 0 0 0 0 0 0 0 0 0 0 0 0 0 0 0 0 0 0 0
1 0 6 0 0 0 0 0 0 1 1 2 2 16 4 0 0 0 0 0 4 0 0 0 0 0 0 0 0 0 0 0 0 0 0 0 0 0 0 0 0 0 0 0 0
CIN
-0 -0 -0 -0 -0 -0 -0 -0 -0 -0 -0 -0 -0 -0 -0 -0 -0 -0 -0 -0 -0 -0 -0 -0 -0 -0 -0 -0 -0 -0 -0 -0 -0 -0 -0 -0 -0 -0 -0 -0 -0 -0 -0 -0 -0
-0 -0 -0 -0 -0 -0 -0 -0 -0 -0 -0 -0 -0 -0 -0 -0 -0 -0 -0 -0 -0 -0 -0 -0 -0 -0 -0 -0 -0 -0 -0 -0 -0 -0 -0 -0 -0 -0 -0 -0 -0 -0 -0 -0 -0
-0 -0 -0 -0 -0 -0 -0 -0 -0 -0 -0 -0 -0 -0 -0 -0 -0 -0 -0 -0 -0 -0 -0 -0 -0 -0 -0 -0 -0 -0 -0 -0 -0 -0 -0 -0 -0 -0 -0 -0 -0 -0 -0 -0 -0
-0 -0 -0 -0 -0 -0 -0 -0 -0 -0 -0 -0 -0 -0 -0 -0 -0 -0 -0 -0 -0 -0 -0 -0 -0 -0 -0 -0 -0 -0 -0 -0 -0 -0 -0 -0 -0 -0 -0 -0 -0 -0 -0 -0 -0
-0 -0 -0 -0 -0 -0 -0 -0 -0 -0 -0 -0 -0 -0 -0 -0 -0 -0 -0 -0 -0 -0 -0 -0 -0 -0 -0 -0 -0 -0 -0 -0 -0 -0 -0 -0 -0 -0 -0 -0 -0 -0 -0 -0 -0
-0 -0 -0 -0 -0 -0 -0 -0 -0 -0 -0 -0 -0 -0 -0 -0 -0 -0 -0 -0 -0 -0 -0 -0 -0 -0 -0 -0 -0 -0 -0 -0 -0 -0 -0 -0 -0 -0 -0 -0 -0 -0 -0 -0 -0
-0 -0 -0 -0 -0 -0 -0 -0 -0 -0 -0 -0 -0 -0 -0 -0 -0 -0 -0 -0 -0 -0 -0 -0 -0 -0 -0 -0 -0 -0 -0 -0 -0 -0 -0 -0 -0 -0 -0 -0 -0 -0 -0 -0 -0
-0 -0 -0 -0 -0 -0 -0 -0 -0 -0 -0 -0 -0 -0 -0 -0 -0 -0 -0 -0 -0 -0 -0 -0 -0 -0 -0 -0 -0 -0 -0 -0 -0 -0 -0 -0 -0 -0 -0 -0 -0 -0 -0 -0 -0
-0 -0 -0 -0 -0 -0 -0 -0 -0 -0 -0 -0 -0 -0 -0 -0 -0 -0 -0 -0 -0 -0 -0 -0 -0 -0 -0 -0 -0 -0 -0 -0 -0 -0 -0 -0 -0 -0 -0 -0 -0 -0 -0 -0 -0
-0 -0 -0 -0 -0 -0 -0 -0 -0 -0 -0 -0 -0 -0 -0 -0 -0 -0 -0 -0 -0 -0 -0 -0 -0 -0 -0 -0 -0 -0 -0 -0 -0 -0 -0 -0 -0 -0 -0 -0 -0 -0 -0 -0 -0
-90 -0 -0 -0 -0 -0 -0 -0 -0 -0 -0 -0 -0 -0 -0 -0 -0 -0 -0 -0 -0 -0 -0 -0 -0 -0 -0 -0 -0 -0 -0 -0 -0 -0 -0 -0 -0 -0 -0 -0 -0 -0 -0 -0 -0
-62 -52 -0 -0 -0 -0 -0 -0 -0 -0 -0 -0 -0 -0 -0 -0 -0 -0 -0 -0 -0 -0 -0 -0 -0 -0 -0 -0 -0 -0 -0 -0 -0 -0 -0 -0 -0 -0 -0 -0 -0 -0 -0 -0 -0
-0 -42 -0 -0 -0 -0 -0 -0 -0 -0 -0 -0 -0 -0 -0 -0 -0 -0 -0 -0 -0 -0 -0 -0 -0 -0 -0 -0 -0 -0 -0 -0 -0 -0 -0 -0 -0 -0 -0 -0 -0 -0 -0 -0 -0
-0 -0 -10 -12 -1 -0 -0 -0 -0 -0 -0 -0 -0 -0 -0 -0 -0 -0 -0 -0 -0 -0 -0 -0 -0 -0 -0 -0 -0 -0 -0 -0 -0 -0 -0 -0 -0 -0 -0 -0 -0 -0 -0 -0 -0
-0 -0 -0 -0 -0 -72 -0 -0 -0 -0 -0 -0 -0 -0 -0 -0 -0 -0 -0 -0 -0 -0 -0 -0 -0 -0 -0 -0 -0 -0 -0 -0 -0 -0 -0 -0 -0 -0 -0 -0 -0 -0 -0 -0 -0
-0 -0 -0 -0 -24 -0 -0 -0 -0 -0 -0 -0 -0 -0 -0 -0 -0 -0 -0 -0 -0 -0 -0 -0 -0 -0 -0 -0 -0 -0 -0 -0 -0 -0 -0 -0 -0 -0 -0 -0 -0 -0 -0 -0 -0
-0 -0 -0 -0 -0 -56 -0 -0 -6 -0 -0 -0 -0 -0 -0 -0 -0 -0 -0 -0 -0 -0 -0 -0 -0 -0 -0 -0 -0 -0 -0 -0 -0 -0 -0 -0 -0 -0 -0 -0 -0 -0 -0 -0 -0
-0 -0 -0 -0 -2 -9 -0 -0 -23 -0 -0 -0 -0 -0 -0 -0 -0 -0 -0 -0 -0 -0 -0 -0 -0 -0 -0 -0 -0 -0 -0 -0 -0 -0 -0 -0 -0 -0 -0 -0 -0 -0 -0 -0 -0
-25 -0 -0 -0 -5 -15 -10 -8 -0 -0 -0 -0 -0 -0 -0 -0 -0 -0 -0 -0 -0 -0 -0 -0 -0 -0 -0 -0 -0 -0 -0 -0 -0 -0 -0 -0 -0 -0 -0 -0 -0 -0 -0 -0 -0
-12 -0 -0 -0 -0 -2 -0 -0 -2 -0 -0 -0 -0 -0 -0 -0 -0 -0 -0 -0 -0 -0 -0 -0 -0 -0 -0 -0 -0 -0 -0 -0 -0 -0 -0 -0 -0 -0 -0 -0 -0 -0 -0 -0 -0
-2 -1 -0 -0 -15 -0 -2 -3 -0 -0 -0 -7 -0 -4 -0 -0 -0 -0 -0 -0 -0 -0 -0 -0 -0 -0 -0 -0 -0 -0 -0 -0 -0 -0 -0 -0 -0 -0 -0 -0 -0 -0 -0 -0 -0
-0 -0 -0 -14 -0 -0 -0 -0 -0 -0 -9 -7 -3 -3 -10 -0 -0 -0 -0 -0 -0 -0 -0 -0 -0 -0 -0 -0 -0 -0 -0 -0 -0 -0 -0 -0 -0 -0 -0 -0 -0 -0 -0 -0 -0
-0 -0 -10 -7 -0 -0 -0 -0 -1 -0 -0 -0 -7 -3 -4 -10 -8 -0 -0 -0 -0 -0 -0 -0 -0 -0 -0 -0 -0 -0 -0 -0 -0 -0 -0 -0 -0 -0 -0 -0 -0 -0 -0 -0 -0
-1 -0 -3 -17 -0 -0 -0 -0 -0 -5 -0 -19 -0 -5 -6 -6 -0 -0 -0 -0 -0 -0 -0 -0 -0 -0 -0 -0 -0 -0 -0 -0 -0 -0 -0 -0 -0 -0 -0 -0 -0 -0 -0 -0 -0
-0 -0 -9 -0 -0 -0 -0 -1 -0 -0 -2 -4 -0 -0 -0 -0 -0 -3 -0 -0 -0 -0 -0 -0 -0 -0 -0 -0 -0 -0 -0 -0 -0 -0 -0 -0 -0 -0 -0 -0 -0 -0 -0 -0 -0
-0 -1 -1 -11 -10 -0 -0 -0 -0 -0 -0 -1 -0 -0 -0 -0 -0 -8 -0 -7 -6 -0 -0 -0 -0 -0 -0 -0 -0 -0 -0 -0 -0 -0 -0 -0 -0 -0 -0 -0 -0 -0 -0 -0 -0
-0 -0 -7 -0 -0 -0 -0 -0 -0 -0 -0 -0 -6 -5 -8 -0 -0 -1 -11 -0 -4 -0 -0 -0 -0 -0 -0 -0 -0 -0 -0 -0 -0 -0 -0 -0 -0 -0 -0 -0 -0 -0 -0 -0 -0
Wind_Speed
13 13 14 14 14 14 15 17 17 18 18 19 20 21 21 22 22 16 15 15 16 17 16 16 13 13 13 12 12 12 11 8 8 7 10 8 9 10 10 10 8 7 8 10 13
14 15 14 15 15 15 16 17 18 19 19 20 21 22 22 22 18 17 16 18 17 16 15 13 13 14 13 14 14 12 11 8 9 9 9 6 7 8 8 7 6 6 8 8 10
15 16 16 16 16 17 17 18 19 20 20 21 22 23 23 19 16 17 17 17 16 16 15 16 15 14 14 15 15 13 13 10 11 12 10 5 7 7 7 4 4 6 6 7 8
17 18 18 18 18 19 19 19 20 20 21 22 23 23 22 17 16 17 17 16 16 17 16 15 15 14 14 14 15 14 13 13 13 14 12 6 10 7 3 7 9 4 7 7 9
19 19 20 20 20 20 21 21 21 21 22 23 23 23 18 18 18 17 16 15 16 15 14 14 14 13 14 14 15 16 15 15 15 16 16 13 8 8 6 7 10 4 5 8 7
20 21 21 21 22 22 22 22 23 23 23 23 23 23 19 22 18 17 16 16 15 14 14 14 14 14 14 15 17 16 17 17 17 16 15 12 13 13 12 6 7 1 4 5 6
20 20 22 23 23 24 24 24 24 24 24 24 23 21 22 24 19 18 17 17 17 16 16 16 15 16 15 16 16 18 22 23 19 15 15 14 16 8 7 5 3 0 2 3 5
20 21 21 22 24 26 26 26 27 26 26 24 24 22 26 21 20 19 17 17 16 17 16 17 16 15 17 14 19 20 22 24 20 14 17 14 15 18 7 5 4 4 5 5 6
23 22 21 22 24 26 28 28 28 27 28 26 23 23 28 21 23 21 20 20 17 17 17 16 17 17 17 18 23 23 26 24 26 16 18 14 24 20 15 8 6 7 7 8 8
21 23 23 23 25 25 28 30 28 27 24 23 24 27 27 23 21 20 19 17 19 17 19 19 19 20 20 19 28 26 27 26 26 23 20 21 18 20 19 14 10 10 10 10 11
21 22 23 26 26 26 25 25 28 30 28 31 27 27 25 21 19 21 18 19 19 21 23 22 23 22 20 20 25 26 29 31 27 25 27 27 27 23 21 16 16 14 11 12 13
27 25 24 24 28 25 24 26 27 26 36 34 36 34 28 24 25 23 17 21 22 24 22 25 30 26 24 23 26 28 32 35 34 30 31 37 37 28 24 21 17 16 15 15 14
26 27 26 24 24 28 28 27 22 24 36 38 35 37 33 29 33 29 21 23 25 26 25 28 26 21 23 25 26 29 32 34 36 32 32 38 50 37 27 21 21 17 17 17 18
25 26 27 24 25 26 31 25 22 24 40 43 38 39 34 30 39 29 24 26 29 32 29 33 31 29 27 29 24 36 28 31 34 36 43 28 55 36 31 28 23 19 18 20 18
26 25 24 18 26 24 23 17 17 21 48 34 32 26 28 34 31 33 28 30 34 31 28 35 30 29 33 33 24 33 27 28 31 35 40 38 40 41 29 27 25 24 21 20 23
27 26 23 26 28 26 15 12 17 33 47 32 29 31 29 33 33 29 29 28 29 32 36 37 29 29 31 27 24 22 26 29 30 33 48 33 36 50 30 20 36 38 34 32 25
28 26 25 22 33 21 13 19 36 39 31 40 36 32 33 34 34 31 33 35 35 37 44 38 40 33 29 31 27 24 28 39 41 36 46 37 38 31 34 37 13 41 37 30 26
29 29 28 27 22 15 21 29 45 41 40 31 30 31 37 33 35 33 33 39 39 35 36 41 48 33 30 32 32 30 29 35 42 43 49 36 42 36 22 27 26 26 37 30 27
31 30 30 27 27 21 30 44 44 41 33 37 32 37 39 37 36 38 41 43 39 37 40 37 42 30 28 27 25 31 34 31 40 41 50 45 46 45 34 32 28 21 28 28 27
29 33 35 27 24 30 36 54 46 41 34 33 42 35 40 38 38 38 39 39 43 36 34 36 46 34 32 29 31 33 23 33 32 41 45 44 46 36 32 32 20 17 23 25 23
29 35 31 23 21 34 54 42 51 46 41 39 39 40 42 39 38 40 41 40 33 33 33 37 39 39 30 36 33 31 33 31 30 34 39 47 46 29 23 19 21 22 21 23 21
30 40 27 16 35 38 54 47 37 42 42 46 45 45 45 40 40 40 44 39 27 27 32 33 35 48 43 33 32 35 38 34 37 37 36 41 64 23 25 21 19 21 20 21 23
37 40 30 25 43 49 46 47 47 49 43 42 45 43 40 42 44 43 42 37 27 29 29 27 35 48 44 38 34 38 37 35 35 34 40 38 51 26 24 23 23 24 24 24 24
32 42 40 40 43 42 50 54 51 40 42 40 43 45 44 47 43 42 44 35 32 34 30 26 36 40 48 38 30 38 38 36 36 42 41 40 40 41 31 30 30 29 30 31 30
31 41 36 40 53 51 42 47 52 51 44 36 43 45 47 52 49 52 44 38 34 34 32 30 44 41 49 47 39 38 36 34 37 40 39 42 44 36 40 40 42 41 39 35 31
35 36 35 45 41 42 55 51 44 41 49 48 51 48 40 49 45 45 48 46 46 35 34 30 43 40 52 46 45 49 44 41 39 41 43 47 57 42 40 37 38 40 39 36 33
33 33 36 42 49 51 49 53 60 48 42 42 45 44 50 51 44 44 45 44 42 43 40 37 42 44 55 46 45 53 51 50 48 47 44 53 48 49 52 49 46 46 41 40 38
Wind_Direction
281 285 286 291 293 293 291 288 290 291 294 294 292 290 288 283 275 278 277 276 272 269 268 265 275 278 285 295 300 310 332 3 33 67 26 60 37 53 58 64 44 33 42 49 112
278 281 286 290 292 292 292 292 290 292 293 292 291 290 286 279 280 271 275 270 268 272 274 279 281 281 287 290 297 308 321 347 356 7 9 56 41 67 52 60 59 37 10 56 111
278 281 284 288 291 292 293 294 293 291 293 292 290 287 281 278 276 272 271 269 270 272 274 273 281 285 289 288 295 311 318 338 342 352 3 38 23 30 28 54 102 134 114 110 121
279 278 281 285 288 290 292 292 292 292 293 291 289 286 278 277 274 272 271 272 270 269 272 275 281 287 290 293 298 307 316 324 332 333 343 7 348 358 15 356 4 117 132 132 144
283 281 279 280 284 287 289 291 291 292 292 291 290 287 280 274 270 275 276 277 275 275 280 281 285 292 293 298 301 304 312 318 323 322 322 330 340 342 335 347 350 45 134 154 159
281 282 282 280 281 283 286 289 290 291 290 291 290 285 280 267 275 275 278 278 279 279 281 285 290 296 300 299 299 307 309 312 317 323 330 332 327 328 332 353 347 85 161 168 175
282 283 282 282 280 282 282 285 287 288 288 290 289 285 274 266 277 276 277 277 278 278 280 285 291 290 299 300 304 304 296 298 310 323 329 334 320 308 329 348 340 220 211 214 207
283 284 286 284 282 280 281 282 283 285 285 286 286 282 269 275 276 273 276 278 284 285 285 286 293 298 296 306 302 300 303 300 312 328 321 326 320 325 324 311 278 260 257 250 230
279 282 285 287 287 283 281 279 281 283 281 282 281 277 269 278 269 271 274 273 281 285 289 292 291 291 296 295 293 296 293 300 302 319 317 314 314 325 331 321 291 269 258 257 261
282 279 282 286 287 288 283 280 279 282 283 282 277 272 267 270 272 272 275 277 277 280 281 284 287 284 289 292 285 291 293 298 300 311 309 307 307 311 318 318 302 296 275 264 261
284 282 281 282 285 288 291 283 276 273 269 263 266 265 270 271 276 270 273 271 276 275 271 279 277 277 284 286 291 296 293 294 304 307 303 302 302 306 309 306 302 293 270 255 251
278 278 281 284 279 285 288 279 277 280 269 266 262 262 267 267 266 265 267 266 268 268 272 275 274 280 287 287 288 291 291 291 298 300 298 298 297 301 302 299 289 281 269 262 262
285 277 279 278 284 277 278 280 290 287 270 267 263 260 260 261 262 259 255 265 268 267 267 271 281 290 281 286 288 290 290 293 294 302 301 300 287 297 301 294 296 280 269 271 250
288 283 274 273 277 278 272 285 283 292 268 263 263 263 257 259 262 260 252 264 267 266 270 274 275 280 283 284 286 286 295 295 295 297 292 305 284 297 306 305 302 291 279 249 264
288 288 287 265 271 275 281 284 278 287 262 266 260 272 261 251 261 259 257 263 262 264 268 272 276 274 276 280 284 288 297 297 298 294 295 293 296 299 309 308 308 302 293 286 287
288 285 286 268 272 274 285 278 276 262 256 266 263 259 256 256 260 264 255 266 268 265 268 271 279 277 279 286 284 292 295 298 299 297 286 282 291 280 301 292 303 292 297 298 295
286 286 279 281 265 274 273 266 261 257 268 261 262 260 258 257 258 259 253 252 256 261 263 271 270 275 278 279 284 282 289 288 288 287 287 299 291 279 301 295 285 280 291 299 302
284 283 279 272 277 259 261 263 257 258 257 269 267 263 255 258 259 257 258 255 256 263 270 266 270 266 270 266 276 274 273 277 284 287 289 296 289 299 308 304 306 304 288 301 303
284 280 276 273 262 257 255 252 255 257 263 257 263 260 259 261 263 259 258 260 260 254 261 270 271 278 278 275 265 276 270 276 282 289 287 287 288 291 295 300 301 307 304 303 306
281 276 270 272 264 257 254 252 257 255 262 261 256 258 258 259 258 259 259 265 262 258 261 271 272 277 274 275 273 267 274 278 278 281 282 285 287 290 302 302 302 307 308 310 315
278 271 275 266 256 254 250 257 255 255 255 258 257 259 260 258 261 261 263 265 266 266 254 265 268 273 275 266 263 268 266 275 276 274 279 284 284 302 300 302 306 314 315 314 319
273 264 276 259 250 255 250 250 264 259 255 256 259 258 258 260 262 259 260 262 267 266 261 262 271 266 266 278 272 266 266 258 267 275 277 280 264 297 297 301 308 314 321 319 320
267 265 273 261 254 252 257 257 259 259 257 256 255 256 256 258 261 259 261 265 265 260 266 264 267 266 271 272 272 266 265 261 266 277 271 273 275 292 292 298 303 307 314 317 322
271 264 261 258 258 259 255 255 255 260 258 255 261 256 255 256 256 261 261 268 261 260 267 265 266 262 263 272 275 268 265 260 258 265 263 261 264 280 289 290 293 297 304 307 311
263 262 262 258 252 254 261 258 254 254 255 256 261 256 253 257 256 256 261 263 267 267 265 260 265 263 266 268 272 273 270 262 255 253 263 251 274 265 280 282 286 293 296 300 301
260 262 262 259 262 258 252 254 257 258 254 253 254 257 260 256 258 262 258 260 261 264 261 259 268 266 267 268 268 269 270 265 257 260 263 268 277 280 288 289 289 289 291 294 296
262 268 265 262 256 256 255 255 254 258 263 258 257 260 258 260 266 269 269 263 262 257 258 258 263 266 267 270 272 269 262 265 267 265 264 269 253 284 281 283 285 288 289 290 292